FW8127 Weather Reports


time (UTC)temp
F
wind
direction
speed
knots
gust
knots
rain 1hr
in
rain 24hr
in
rain mn
in
humidity
%
barometer
mb
20260505010112 66 0 0.0 5.2 0.00 0.00 0.00 47 1011.0
20260505005551 67 244 1.7 4.3 0.00 0.00 0.00 48 1010.8
20260505005050 67 217 1.7 7.8 0.00 0.00 0.00 48 1010.7
20260505004556 67 142 2.6 7.8 0.00 0.00 0.00 48 1010.8
20260505004049 68 157 1.7 7.0 0.00 0.00 0.00 47 1010.8
20260505003547 68 179 1.7 5.2 0.00 0.00 0.00 46 1010.8
20260505003057 68 0 0.9 5.2 0.00 0.00 0.00 44 1010.8
20260505002547 68 182 1.7 7.0 0.00 0.00 0.00 44 1010.7
20260505002049 68 175 1.7 7.0 0.00 0.00 0.00 44 1010.7
20260505001600 69 242 1.7 7.0 0.00 0.00 0.00 44 1010.7
20260505001050 69 218 0.9 7.8 0.00 0.00 0.00 43 1010.7
20260505000551 69 0 1.7 7.8 0.00 0.00 0.00 43 1010.8
20260505000057 69 213 2.6 6.1 0.00 0.00 0.00 42 1010.6
20260504235548 70 221 0.9 6.1 0.00 0.00 0.00 42 1010.7
20260504235048 70 213 1.7 6.1 0.00 0.00 0.00 41 1010.5
20260504234554 70 217 1.7 6.1 0.00 0.00 0.00 41 1010.6
20260504234048 71 221 2.6 6.1 0.00 0.00 0.00 41 1010.6
20260504233548 71 219 0.9 5.2 0.00 0.00 0.00 41 1010.5
20260504233107 71 191 0.9 5.2 0.00 0.00 0.00 40 1010.6
20260504232552 72 171 1.7 5.2 0.00 0.00 0.00 39 1010.6
20260504232047 72 0 0.9 4.3 0.00 0.00 0.00 38 1010.6
20260504231552 73 202 0.9 7.0 0.00 0.00 0.00 37 1010.5
20260504231049 73 168 1.7 7.0 0.00 0.00 0.00 36 1010.5
20260504230549 73 221 2.6 7.8 0.00 0.00 0.00 35 1010.5
20260504230059 73 215 2.6 8.7 0.00 0.00 0.00 35 1010.4
20260504225549 73 270 2.6 8.7 0.00 0.00 0.00 35 1010.5
20260504225048 73 295 3.5 8.7 0.00 0.00 0.00 35 1010.6
20260504224554 73 207 3.5 8.7 0.00 0.00 0.00 35 1010.4
20260504224048 74 240 2.6 10.4 0.00 0.00 0.00 35 1010.6
20260504223549 74 170 4.3 10.4 0.00 0.00 0.00 34 1010.3
20260504223055 74 197 4.3 9.6 0.00 0.00 0.00 35 1010.5
20260504222548 74 252 4.3 8.7 0.00 0.00 0.00 34 1010.5
20260504222048 74 284 3.5 9.6 0.00 0.00 0.00 34 1010.5
20260504221556 74 179 3.5 9.6 0.00 0.00 0.00 35 1010.5
20260504221049 74 254 3.5 9.6 0.00 0.00 0.00 34 1010.6
20260504220548 74 174 4.3 11.3 0.00 0.00 0.00 34 1010.6
20260504220058 74 289 4.3 11.3 0.00 0.00 0.00 33 1010.6
20260504215550 74 281 3.5 13.9 0.00 0.00 0.00 34 1010.6
20260504215048 74 240 3.5 13.9 0.00 0.00 0.00 34 1010.6
20260504214557 74 207 3.5 13.9 0.00 0.00 0.00 34 1010.6
20260504214049 74 263 2.6 11.3 0.00 0.00 0.00 33 1010.6
20260504213547 74 195 6.1 12.2 0.00 0.00 0.00 33 1010.6
20260504213055 74 309 5.2 12.2 0.00 0.00 0.00 33 1010.7
20260504212550 74 294 3.5 9.6 0.00 0.00 0.00 34 1010.7
20260504212050 74 288 2.6 12.2 0.00 0.00 0.00 34 1010.6
20260504211554 74 300 5.2 12.2 0.00 0.00 0.00 34 1010.7
20260504211050 74 223 4.3 12.2 0.00 0.00 0.00 34 1010.7
20260504210549 74 200 5.2 12.2 0.00 0.00 0.00 33 1010.7
20260504210107 74 265 5.2 12.2 0.00 0.00 0.00 32 1010.5
20260504205548 74 281 4.3 12.2 0.00 0.00 0.00 34 1010.7
20260504205048 74 241 4.3 8.7 0.00 0.00 0.00 33 1010.4
20260504204609 74 267 5.2 10.4 0.00 0.00 0.00 33 1010.4
20260504204047 74 206 2.6 10.4 0.00 0.00 0.00 36 1010.7
20260504203551 74 278 3.5 9.6 0.00 0.00 0.00 34 1010.7
20260504203107 73 245 4.3 11.3 0.00 0.00 0.00 35 1010.6
20260504202551 73 287 3.5 13.0 0.00 0.00 0.00 36 1010.7
20260504202049 73 245 5.2 13.0 0.00 0.00 0.00 34 1010.7
20260504201558 73 254 6.1 13.0 0.00 0.00 0.00 37 1011.0
20260504201053 73 298 5.2 11.3 0.00 0.00 0.00 34 1011.1
20260504200549 73 296 2.6 9.6 0.00 0.00 0.00 36 1011.1
20260504195549 73 243 4.3 10.4 0.00 0.00 0.00 34 1011.3
20260504195049 72 194 6.1 12.2 0.00 0.00 0.00 35 1011.4
20260504194602 72 297 5.2 13.0 0.00 0.00 0.00 36 1011.4
20260504194049 73 245 4.3 13.0 0.00 0.00 0.00 35 1011.4
20260504193549 72 255 5.2 13.0 0.00 0.00 0.00 36 1011.5
20260504193059 72 267 3.5 13.0 0.00 0.00 0.00 36 1011.5
20260504192550 72 273 4.3 12.2 0.00 0.00 0.00 35 1011.6
20260504192049 72 255 5.2 12.2 0.00 0.00 0.00 37 1011.6
20260504191554 72 269 6.1 12.2 0.00 0.00 0.00 37 1011.7
20260504191050 72 263 4.3 11.3 0.00 0.00 0.00 36 1011.7
20260504190550 72 244 4.3 10.4 0.00 0.00 0.00 36 1011.8
20260504190121 72 238 4.3 11.3 0.00 0.00 0.00 39 1011.7
20260504185549 72 258 2.6 11.3 0.00 0.00 0.00 36 1011.8
20260504185049 72 284 4.3 12.2 0.00 0.00 0.00 36 1011.9
20260504184553 71 290 6.1 12.2 0.00 0.00 0.00 35 1011.9
20260504184050 72 288 3.5 11.3 0.00 0.00 0.00 35 1012.0
20260504183551 72 209 4.3 11.3 0.00 0.00 0.00 34 1012.0
20260504183054 72 301 3.5 9.6 0.00 0.00 0.00 36 1012.0
20260504182549 72 295 2.6 8.7 0.00 0.00 0.00 37 1012.2
20260504182049 72 220 3.5 8.7 0.00 0.00 0.00 37 1012.4
20260504181555 72 263 1.7 8.7 0.00 0.00 0.00 36 1012.4
20260504181049 71 275 2.6 9.6 0.00 0.00 0.00 36 1012.5
20260504180551 71 232 3.5 9.6 0.00 0.00 0.00 36 1012.6
20260504180051 71 269 3.5 9.6 0.00 0.00 0.00 38 1012.6
20260504175552 71 338 2.6 9.6 0.00 0.00 0.00 40 1012.6
20260504175049 71 259 3.5 7.8 0.00 0.00 0.00 37 1012.8
20260504174558 70 351 2.6 7.8 0.00 0.00 0.00 39 1012.8
20260504174049 70 263 2.6 8.7 0.00 0.00 0.00 37 1012.9
20260504173551 69 325 4.3 10.4 0.00 0.00 0.00 34 1012.8
20260504173052 69 321 5.2 10.4 0.00 0.00 0.00 35 1013.0
20260504172550 70 286 2.6 11.3 0.00 0.00 0.00 39 1013.0
20260504172050 69 324 4.3 11.3 0.00 0.00 0.00 38 1013.1
20260504171553 69 279 3.5 10.4 0.00 0.00 0.00 37 1013.2
20260504171051 69 211 2.6 10.4 0.00 0.00 0.00 39 1013.3
20260504170549 69 285 5.2 8.7 0.00 0.00 0.00 35 1013.3
20260504151049 65 281 3.5 7.8 0.00 0.00 0.00 46 1014.5
20260504150547 65 277 3.5 9.6 0.00 0.00 0.00 46 1014.5
20260504141049 62 277 3.5 8.7 0.00 0.00 0.00 55 1014.5
20260504140549 62 294 3.5 10.4 0.00 0.00 0.00 55 1014.5
20260504130622 59 284 5.2 11.3 0.00 0.00 0.00 59 1015.0
20260504110553 51 0 0.0 0.0 0.00 0.00 0.00 80 1015.7
20260504100548 49 0 0.0 4.3 0.00 0.00 0.00 80 1015.8
20260504081601 50 0 0.0 3.5 0.00 0.00 0.00 71 1015.9
20260504081048 50 0 0.0 3.5 0.00 0.00 0.00 71 1015.9
20260504080550 50 203 0.9 3.5 0.00 0.00 0.00 70 1015.9
20260504080105 50 200 0.0 3.5 0.00 0.00 0.00 70 1015.8
20260504060115 52 237 0.9 7.8 0.00 0.00 0.00 59 1015.6
20260504050550 52 254 2.6 7.8 0.00 0.00 0.00 55 1015.7
20260504050112 52 254 1.7 7.0 0.00 0.00 0.00 56 1015.8
20260504045549 52 212 1.7 7.0 0.00 0.00 0.00 56 1015.6
20260504045048 52 234 1.7 6.1 0.00 0.00 0.00 57 1015.7
20260504044553 52 304 1.7 5.2 0.00 0.00 0.00 57 1015.7
20260504044052 51 284 0.9 3.5 0.00 0.00 0.00 57 1015.7
20260504043548 51 261 0.9 5.2 0.00 0.00 0.00 58 1015.6
20260504043106 51 250 0.9 5.2 0.00 0.00 0.00 59 1015.5
20260504042548 51 274 0.9 3.5 0.00 0.00 0.00 60 1015.4
20260504042049 50 257 0.9 3.5 0.00 0.00 0.00 61 1015.3
20260504041549 50 0 0.0 2.6 0.00 0.00 0.00 61 1015.3
20260504041048 50 242 0.0 1.7 0.00 0.00 0.00 60 1015.1
20260504040547 50 0 0.0 3.5 0.00 0.00 0.00 61 1015.1
20260504040059 50 243 0.0 3.5 0.00 0.00 0.00 61 1015.1
20260504035549 49 248 0.0 2.6 0.00 0.00 0.00 63 1015.0
20260504035048 49 215 0.0 1.7 0.00 0.00 0.00 64 1015.1
20260504034557 49 0 0.0 1.7 0.00 0.00 0.00 64 1015.0
20260504034047 49 0 0.0 2.6 0.00 0.00 0.00 64 1014.9
20260504033548 49 215 0.9 2.6 0.00 0.00 0.00 64 1015.0
20260504033103 49 0 0.0 1.7 0.00 0.00 0.00 64 1014.9
20260504032548 49 0 0.9 1.7 0.00 0.00 0.00 64 1014.9
20260504032050 49 215 0.0 1.7 0.00 0.00 0.00 64 1014.8
20260504031558 49 0 0.0 0.9 0.00 0.00 0.00 63 1014.8
20260504031048 49 0 0.0 1.7 0.00 0.00 0.00 63 1014.7
20260504030548 49 0 0.0 1.7 0.00 0.00 0.00 62 1014.6
20260504030054 49 215 0.0 1.7 0.00 0.00 0.00 62 1014.8
20260504025548 49 0 0.0 0.9 0.00 0.00 0.00 62 1014.9
20260504025049 49 0 0.0 0.9 0.00 0.00 0.00 61 1014.9
20260504024601 50 0 0.0 0.9 0.00 0.00 0.00 61 1014.8
20260504024048 50 0 0.0 1.7 0.00 0.00 0.00 61 1014.8
20260504023548 50 0 0.0 1.7 0.00 0.00 0.00 60 1014.8
20260504023059 50 0 0.0 1.7 0.00 0.00 0.00 60 1015.0
20260504022546 50 0 0.0 1.7 0.00 0.00 0.00 59 1014.9
20260504022047 50 0 0.0 0.9 0.00 0.00 0.00 59 1014.9
20260504021553 51 0 0.0 1.7 0.00 0.00 0.00 58 1014.9
20260504021048 51 0 0.0 1.7 0.00 0.00 0.00 57 1014.9
20260504020548 51 217 0.0 1.7 0.00 0.00 0.00 58 1015.0
20260504020052 51 0 0.0 2.6 0.00 0.00 0.00 57 1015.0
20260504015548 51 0 0.0 2.6 0.00 0.00 0.00 57 1015.0
20260504015048 51 0 0.0 2.6 0.00 0.00 0.00 56 1015.0
20260504014558 52 0 0.0 2.6 0.00 0.00 0.00 56 1014.9
20260504014049 52 217 0.0 0.9 0.00 0.00 0.00 55 1014.8
20260504013548 52 0 0.0 1.7 0.00 0.00 0.00 54 1014.7
20260504013105 52 0 0.0 1.7 0.00 0.00 0.00 54 1014.7
20260504012548 53 0 0.0 1.7 0.00 0.00 0.00 54 1014.7
20260504012048 53 0 0.0 1.7 0.00 0.00 0.00 52 1014.6
20260504011553 54 215 0.0 2.6 0.00 0.00 0.00 52 1014.6
20260504011047 54 215 0.0 2.6 0.00 0.00 0.00 51 1014.6
20260504010548 55 215 0.9 2.6 0.00 0.00 0.00 50 1014.5